Location: Daseleys Middle
(52.9000°N, 0.3333°E)
Time: 06:42:48
(UTC+00:00)

Daily predictions for brighter satellites

Satellite Brightness Start Highest point End
(mag) Time Altitude Azimuth Time Altitude Azimuth Time Altitude Azimuth
NOSS 3-3 (A) 4.3 20:52:01 10° WSW 20:57:31 72° NW 21:04:10 10° NE
Okean O Rocket 2.7 20:55:37 10° S 20:59:46 42° W 21:03:59 10° NNW
Cosmos 1025 Rocket 3.5 20:56:17 10° SSE 21:00:22 42° E 21:04:29 10° NNE
NOSS 8 (H) 4.5 21:00:16 10° SW 21:04:07 83° NW 21:07:11 10° NE
RESURS DK-1 4.1 21:09:21 10° NNW 21:12:34 23° NE 21:15:47 10° E
In-Cosmos 22 Rocket 4.3 21:07:01 10° S 21:12:49 87° ESE 21:18:35 10° NNE
Cosmos 1503 Rocket 4.0 21:14:18 10° SSW 21:19:27 89° ESE 21:24:39 10° NNE
DNEPR-1 R/B 3.7 21:15:55 10° NW 21:20:11 65° NE 21:24:27 10° SE
USA 215 3.7 21:16:21 10° E 21:22:49 65° N 21:29:18 10° WNW
Cosmos 2369 Rocket 2.2 21:19:02 10° SSW 21:24:44 86° ESE 21:30:27 10° NNE
ASTEX 1 3.4 21:21:05 10° N 21:26:00 81° E 21:30:50 10° S
Cosmos 1354 Rocket 4.0 21:23:45 10° SSW 21:28:58 79° ESE 21:34:13 10° NNE
Cosmos 2297 Rocket 3.4 21:28:16 10° NNW 21:33:24 34° NE 21:38:31 10° ESE
SAR-Lupe-2 4.0 21:29:58 10° S 21:33:31 58° WSW 21:37:06 10° NNW
ISS -3.7 21:31:05 10° W 21:34:24 60° SSW 21:37:42 10° ESE
COBE Rocket 4.0 21:31:25 10° NNE 21:35:57 50° E 21:40:27 10° S
Cosmos 1680 Rocket 4.5 21:32:39 10° NNW 21:37:35 38° NE 21:42:31 10° ESE
Okean 2 Rocket 4.0 21:33:29 10° NNW 21:37:41 45° W 21:41:50 10° SSW
Cosmos 2098 Rocket 3.6 21:35:22 10° N 21:38:11 29° ENE 21:40:47 13° SE
Ariane Rocket 3.2 21:33:25 10° S 21:38:26 68° WSW 21:43:30 10° NNW
Cosmos 2263 4.2 21:40:25 10° SSW 21:46:05 89° WNW 21:51:46 10° NNE
CZ-4C R/B 2.0 21:42:08 10° SSW 21:46:24 50° SE 21:51:48 10° NE
Cosmos 923 Rocket 4.4 21:43:58 10° NNW 21:49:06 56° ENE 21:53:32 14° SE
Cosmos 1515 2.6 21:46:57 10° NNW 21:49:34 87° W 21:51:23 17° S
Lacrosse 5 rocket 2.3 21:46:20 10° WNW 21:50:07 45° N 21:53:56 10° E
Cosmos 44 3.0 21:47:12 10° SSW 21:51:25 58° SE 21:55:47 10° NE
Okean 1 Rocket 4.1 21:47:30 10° NNW 21:51:38 42° W 21:55:43 10° SSW
Helios 1A 4.4 21:48:14 10° N 21:51:53 36° WNW 21:55:31 10° SW
Cosmos 1975 Rocket 3.3 21:53:27 14° SSE 21:57:01 50° E 22:01:12 10° NNE
Cosmos 2221 Rocket 4.4 21:55:08 10° SSW 21:59:32 52° WNW 22:04:00 10° N
Nadezhda 4 Rocket 4.2 21:53:23 10° SSW 21:59:44 76° WNW 22:06:05 10° N
Cosmos 2228 3.2 21:55:53 10° N 22:00:03 56° ENE 22:03:10 17° SSE
Cosmos 1455 Rocket 3.3 21:58:59 10° NNW 22:03:16 64° W 22:07:03 13° S
Terra 4.2 22:01:29 10° SW 22:04:36 17° W 22:07:42 10° NW
Cosmos 2227 Rocket 3.7 22:01:05 10° NNW 22:06:06 31° NE 22:11:04 10° ESE
Gbstr 26 Del rocket 3.6 22:03:25 10° W 22:08:27 68° SSW 22:14:40 10° ESE
Cosmos 2285 Rocket 4.0 22:02:12 10° SSW 22:08:34 80° ESE 22:15:02 10° NNE
Cosmos 1867 3.9 22:03:57 10° SSW 22:09:04 44° ESE 22:14:16 10° NE
BREEZE M DEB (TANK) 3.5 22:07:10 10° SW 22:10:06 21° SSE 22:10:09 21° SSE
BREEZE-M DEB (TANK) 3.4 22:06:15 10° WSW 22:15:48 58° S 22:19:02 10° E
Cosmos 2026 Rocket 3.9 22:12:19 10° S 22:18:24 88° E 22:24:30 10° N
Iridium 82 4.3 22:15:13 10° N 22:18:37 79° W 22:20:46 20° S
Cosmos 1898 Rocket 3.5 22:16:18 11° S 22:21:14 64° ESE 22:26:27 10° NNE
ATLAS 5 CENTAUR R/B 4.1 22:18:52 10° NW 22:21:30 18° N 22:24:29 10° NE
Cosmos 1812 4.4 22:21:04 10° NW 22:23:31 20° W 22:25:56 10° SW
USA 81 4.1 22:25:23 14° S 22:29:56 88° W 22:35:15 10° N
Cosmos 1553 Rocket 4.0 22:24:48 10° N 22:31:06 81° E 22:35:55 18° SSE
ARIANE 5 R/B 2.8 22:30:39 20° SSE 22:33:37 63° ENE 22:38:01 10° N
BlueWalker 3 1.9 22:31:11 10° W 22:34:48 56° SSW 22:36:56 22° SE
Cosmos 1900 4.4 22:32:35 10° SW 22:37:37 89° SE 22:42:46 10° NE
Cosmos 1092 Rocket 4.2 22:35:08 10° SSW 22:41:27 73° WNW 22:47:47 10° N
CZ-4C R/B 3.3 22:41:09 10° NNE 22:44:44 55° ESE 22:46:38 26° S
DELTA 2 DEB (DPAF) 3.7 22:40:51 10° NNE 22:44:47 89° E 22:47:30 19° SSW
ATLAS 2AS CENTAUR R/B 3.5 22:40:45 10° NW 22:47:23 48° NNE 22:53:52 10° ESE
SOZ 3.9 22:47:04 10° W 22:49:22 72° S 22:50:38 21° E
RESURS DK-1 2.4 22:46:27 10° NW 22:50:25 64° WSW 22:52:30 26° SSE
Cosmos 1536 Rocket 3.9 22:48:20 24° SSE 22:50:43 50° E 22:55:00 10° NNE
Cosmos 1656 3.8 22:47:10 18° S 22:51:11 55° ESE 22:56:35 10° NE
S3M 4.2 22:45:43 10° N 22:52:01 62° ENE 22:56:23 20° SSE
Cosmos 2263 Rocket 3.6 22:48:32 10° NNW 22:53:41 34° NE 22:58:47 10° ESE
Cosmos 1544 Rocket 3.8 22:49:28 10° NNW 22:53:46 61° W 22:56:31 22° S
Cosmos 1606 Rocket 4.0 22:52:02 10° N 22:56:19 51° ENE 22:58:50 23° SE
Cosmos 372 Rocket 4.4 22:55:34 10° SW 23:00:37 63° WNW 23:05:41 10° NNE
Meteor 2-20 Rocket 4.4 22:54:58 10° NNW 23:01:03 77° W 23:05:05 21° S
Cosmos 1400 Rocket 2.9 22:57:18 10° NNW 23:01:07 62° W 23:03:02 26° S
Cosmos 2058 3.1 23:01:15 27° SSE 23:03:04 51° E 23:06:54 10° NNE
USA 215 3.2 22:59:11 10° ESE 23:05:44 86° SSW 23:12:20 10° WNW
Cosmos 1782 2.5 23:04:04 10° N 23:07:46 79° E 23:09:26 31° SSE
Cosmos 2112 Rocket 4.3 23:03:59 10° NNW 23:09:11 60° WSW 23:12:22 23° S
Cosmos 2369 Rocket 4.4 23:04:39 10° W 23:09:27 27° NW 23:14:16 10° NNE
ISS -2.3 23:08:01 10° W 23:10:32 23° SW 23:10:32 23° SW
Cosmos 2098 Rocket 4.4 23:13:42 10° NW 23:16:12 21° W 23:18:12 14° SW
Cosmos 2297 Rocket 2.3 23:12:14 10° NW 23:17:50 63° WSW 23:21:13 24° S
Cosmos 2219 4.3 23:13:31 10° NNW 23:18:54 40° NE 23:24:12 10° ESE
Cosmos 1937 Rocket 3.8 23:14:20 11° SW 23:19:15 65° WNW 23:24:22 10° NNE
Cosmos 1726 Rocket 3.9 23:15:00 10° N 23:19:35 65° ENE 23:22:11 25° SSE
Cosmos 1862 3.8 23:18:17 28° SE 23:19:36 40° E 23:23:02 10° NNE
Cosmos 1680 Rocket 4.2 23:14:44 10° NW 23:19:42 43° WSW 23:22:44 22° SSW
Cosmos 2058 Rocket 4.1 23:17:06 10° N 23:21:16 37° ENE 23:24:00 19° SE
PSLV R/B 4.2 23:17:40 10° NNE 23:22:13 49° E 23:24:32 26° SSE
ALOS 2 2.6 23:22:00 27° S 23:24:19 77° WSW 23:28:45 10° NNW
Lacrosse 5 rocket 1.2 23:23:52 10° WNW 23:27:49 85° NNE 23:31:05 14° ESE
Cosmos 1980 Rocket 3.6 23:28:23 17° SE 23:30:43 22° ESE 23:34:58 10° NE
Cosmos 1356 Rocket 3.6 23:29:16 10° N 23:33:16 61° ENE 23:35:17 28° SE
CZ-4C R/B 3.2 23:30:06 10° W 23:34:45 46° NNW 23:40:45 10° NE
MetOp-A 4.3 23:33:09 23° SW 23:34:50 33° W 23:38:19 10° NNW
Cosmos 1697 Rocket 3.1 23:32:03 25° S 23:35:01 46° ESE 23:40:26 10° NE
Cosmos 2360 4.2 23:33:06 19° SSW 23:37:14 80° ESE 23:42:57 10° NNE
Cosmos 1892 Rocket 3.8 23:39:40 29° SSE 23:41:37 53° E 23:45:50 10° NNE
CZ-2C R/B 4.0 23:36:55 10° ESE 23:41:52 34° ENE 23:46:52 10° N
Cosmos 1441 Rocket 3.6 23:44:49 31° SE 23:45:51 40° E 23:49:07 10° NNE
GEOS 3 Rocket 3.9 23:43:38 10° NE 23:48:47 51° SE 23:51:46 24° SSW
Meteor 2-3 Rocket 4.1 23:46:44 24° SSE 23:50:07 55° E 23:55:44 10° NNE
Cosmos 2227 Rocket 2.2 23:44:58 10° NW 23:50:39 73° WSW 23:54:06 24° SSE
Cosmos 1867 4.4 23:47:20 10° WSW 23:52:39 51° NW 23:58:00 10° NE
